Regional Weather Roundup
Issued by NWS Binghamton, NY

Home | Current Version | Previous Version | Text Only | Print | Product List | Glossary On
Versions: 1 2 3 4 5 6 7 8 9 10 11 12 13 14 15 16 17 18 19 20 21 22 23 24 25 26 27 28 29 30 31 32 33 34 35 36 37 38 39 40 41 42 43 44 45 46 47 48 49 50
000
ASUS41 KBGM 281010
RWRBGM
RWRBGM
BINGHAMTON REGIONAL WEATHER ROUNDUP
NATIONAL WEATHER SERVICE BINGHAMTON NY
500 AM EST FRI NOV 28 2014

Note: "fair" indicates few or no clouds below 12,000 feet with no
significant weather and/or obstructions to visibility.

* = Station(s) that does not report precipitation, such as rain,
snow, etc, also no thunder or fog.

!NYZ009-015>018-022>025-036-037-044>046-055>057-062-281100
...CENTRAL NEW YORK...

CITY           SKY/WX    TMP DP  RH WIND       PRES   REMARKS
BINGHAMTON     CLOUDY    32  20  61 NW5       30.05R WCI  27
CORTLAND       LGT SNOW  27  25  93 W3        30.10S
DANSVILLE      PTCLDY    24  15  68 VRB6      30.19R WCI  17
ELMIRA         CLOUDY    28  21  75 W3        30.13R
ITHACA         LGT SNOW  27  25  93 NW14      30.12R FOG     WCI  15
HAMILTON       CLOUDY    27  21  80 NW3       30.07R
MONTICELLO     CLOUDY    23  21  93 W9        30.03R WCI  13
NORWICH        FLURRIES  21  19  93 CALM      30.09S
PENN YAN       LGT SNOW  26  19  74 W13G25    30.12S WCI  15
ROME           CLOUDY    26  23  88 NW6       30.12R WCI  19
SIDNEY         CLOUDY    25  25 100 SW3       30.08S
SYRACUSE       FLURRIES  26  23  88 W8        30.13R WCI  18
$$

!PAZ038>040-043-044-047-048-072-281100
...NORTHEAST PENNSYLVANIA...

CITY           SKY/WX    TMP DP  RH WIND       PRES   REMARKS
HAZLETON       CLOUDY    28  23  80 W7        30.07S WCI  21
SCRANTON       CLOUDY    27  24  89 W6        30.09R WCI  20
TOWANDA*       CLOUDY    28  23  80 W6        30.15R WCI  22
$$
&&
KEY
WCI = WIND CHILL INDEX
VSB = VISIBILITY
HX  = HEAT INDEX
$$


USA.gov is the U.S. government's official web portal to all federal, state and local government web resources and services.